Location: Doschendorf
(50.0069°N, 11.0602°E)
Time: 02:32:18
(UTC+00:00)

Cosmos 1633 Rocket - Pass Details

Date: 17 November 2019
Orbit: 608 x 623 km, 82.5° (Epoch: 07 December)

Event Time Altitude Azimuth Distance (km) Brightness Sun altitude
Rises 16:40:37 0° 354° (N) 2,903 6.4 -11.3°
Reaches altitude 10° 16:42:55 10° 1° (N) 1,995 5.5 -11.7°
Maximum altitude 16:47:11 46° 75° (ENE) 836 3.3 -12.4°
Drops below altitude 10° 16:51:26 10° 149° (SSE) 1,987 5.5 -13.0°
Sets 16:53:43 0° 156° (SSE) 2,890 6.4 -13.4°
